Weather History for Meacham, OR

Change the Weather History Date:

Friday, November 2, 2012

  Actual Average Record
Temperature  
Mean Temperature 42 °F -  
Max Temperature 55 °F 46 °F 57 °F (1997)
Min Temperature 30 °F 25 °F 3 °F (2002)
Degree Days  
Heating Degree Days 23    
Moisture  
Dew Point 36 °F    
Average Humidity 85    
Maximum Humidity 100    
Minimum Humidity 57    
Precipitation  
Precipitation 0.00 in - - ()
Sea Level Pressure  
Sea Level Pressure 30.09 in    
Wind  
Wind Speed 0 mph (North)    
Max Wind Speed 4 mph    
Max Gust Speed -    
Visibility 6 miles    
Events      
Averages and records for this station are not official NWS values.
T = Trace of Precipitation, MM = Missing Value Source: NWS Daily Summary

Daily Weather History Graph

Daily Weather History Graph

Search for Another Location

Airport:

Trip Planner

Search our weather history database for the weather conditions in past years. The results will help you decide how hot, cold, wet, or windy it might be!

Date:

Astronomy

Nov. 02, 2012 Rise Set
Actual Time 7:35 AM PDT 5:38 PM PDT
Civil Twilight 7:04 AM PDT 6:09 PM PDT
Nautical Twilight 6:29 AM PDT 6:44 PM PDT
Astronomical Twilight 5:54 AM PDT 7:18 PM PDT
Moon 8:23 PM PDT (11/2) 11:05 AM PDT (11/2)
Length of Visible Light 11h 05m
Length of Day
10h 03m
Waning Gibbous, 86% of the Moon is Illuminated
Nov 2
Waning Gibbous
Nov 6
Last Quarter
Nov 13
New
Nov 20
First Quarter
Nov 28
Full

Hourly Weather History & Observations

Time (PDT) Temp. Dew Point Humidity Pressure Visibility Wind Dir Wind Speed Gust Speed Precip Events Conditions
12:07 AM 39.2 °F 39.2 °F 100% 30.08 in 2.5 mi Calm Calm - N/A   Overcast
12:27 AM 39.2 °F 37.4 °F 93% 30.09 in 7.0 mi Calm Calm - N/A   Mostly Cloudy
12:56 AM 39.0 °F 37.9 °F 96% 30.11 in 1.2 mi Calm Calm - N/A   Overcast
1:05 AM 39.2 °F 37.4 °F 93% 30.08 in 3.0 mi Calm Calm - N/A   Overcast
1:16 AM 37.4 °F 37.4 °F 100% 30.08 in 2.5 mi Calm Calm - N/A   Overcast
1:23 AM 37.4 °F 37.4 °F 100% 30.08 in 1.2 mi Calm Calm - N/A   Overcast
1:45 AM 37.4 °F 35.6 °F 93% 30.08 in 0.8 mi Calm Calm - N/A   Overcast
1:56 AM 37.0 °F 36.0 °F 96% 30.11 in 1.0 mi Calm Calm - N/A   Overcast
2:08 AM 35.6 °F 35.6 °F 100% 30.08 in 0.8 mi Calm Calm - N/A   Mist
2:20 AM 35.6 °F 35.6 °F 100% 30.08 in 2.0 mi Calm Calm - N/A   Overcast
2:29 AM 35.6 °F 33.8 °F 93% 30.08 in 1.2 mi Calm Calm - N/A   Overcast
2:56 AM 34.0 °F 33.1 °F 96% 30.12 in 0.8 mi Calm Calm - N/A   Mist
3:45 AM 33.8 °F 32.0 °F 93% 30.07 in 1.8 mi Calm Calm - N/A   Mostly Cloudy
3:56 AM 33.1 °F 32.0 °F 96% 30.12 in 5.0 mi Calm Calm - N/A   Mostly Cloudy
4:21 AM 32.0 °F 32.0 °F 100% 30.08 in 8.0 mi Calm Calm - N/A   Scattered Clouds
4:56 AM 32.0 °F 30.9 °F 96% 30.12 in 10.0 mi Calm Calm - N/A   Scattered Clouds
5:56 AM 32.0 °F 30.9 °F 96% 30.14 in 4.0 mi Calm Calm - N/A   Mostly Cloudy
6:08 AM 32.0 °F 30.2 °F 93% 30.09 in 10.0 mi Calm Calm - N/A   Scattered Clouds
6:56 AM 30.9 °F 30.0 °F 96% 30.13 in 10.0 mi Calm Calm - N/A   Clear
7:56 AM 30.9 °F 30.0 °F 96% 30.15 in 10.0 mi Calm Calm - N/A   Clear
8:56 AM 33.1 °F 32.0 °F 96% 30.15 in 9.0 mi Calm Calm - N/A   Clear
9:56 AM 42.1 °F 39.9 °F 92% 30.12 in 10.0 mi Calm Calm - N/A   Clear
10:56 AM 48.0 °F 42.1 °F 80% 30.10 in 10.0 mi Calm Calm - N/A   Clear
11:56 AM - - N/A% 30.09 in 10.0 mi Calm Calm - N/A   Clear
12:59 PM 53.6 °F 41.0 °F 62% 30.07 in 1.2 mi Calm Calm - N/A   Haze
1:06 PM 53.6 °F 42.8 °F 67% 30.07 in - Calm Calm - N/A   Clear
1:56 PM 53.1 °F 39.0 °F 59% 30.07 in - Variable 3.5 mph - N/A   Clear
2:56 PM 54.0 °F 39.9 °F 59% 30.07 in 10.0 mi Calm Calm - N/A   Clear
3:56 PM 54.0 °F 39.0 °F 57% 30.06 in 10.0 mi Calm Calm - N/A   Clear
4:56 PM 51.1 °F 39.0 °F 63% 30.06 in 10.0 mi Calm Calm - N/A   Clear
5:56 PM 46.9 °F 39.0 °F 74% 30.08 in 10.0 mi Calm Calm - N/A   Clear
6:56 PM 45.0 °F 37.9 °F 76% 30.10 in 10.0 mi Calm Calm - N/A   Mostly Cloudy
7:56 PM 44.1 °F 37.0 °F 76% 30.10 in 10.0 mi Calm Calm - N/A   Mostly Cloudy
8:56 PM 45.0 °F 37.0 °F 74% 30.09 in 10.0 mi Calm Calm - N/A   Overcast
9:56 PM 46.0 °F 37.0 °F 71% 30.07 in 10.0 mi Calm Calm - N/A   Overcast
10:56 PM 46.9 °F 36.0 °F 66% 30.04 in 10.0 mi Calm Calm - N/A   Overcast
11:56 PM 46.9 °F 36.0 °F 66% 30.05 in 10.0 mi Calm Calm - N/A   Mostly Cloudy